SCOUT X-4 R/B, 933

Orbit data source: Space-Track

SCOUT X-4 R/B, 933 is space debris in LEO originally from a launch on Sat, 21 Nov 1964 UTC launched from the Air Force Western Test Range (AFWTR). Debris objects in space refer to the collection of defunct objects orbiting the Earth. Examples of debris include non-operational satellites, rocket bodies, and fragments generated from explosions, collisions, or faulty payload assembly.

Loading next visibility...
Identifier
933, 1964-076C
Orbit
LEO
Last TLE update
15 hours ago
Origin
Manufacturer
ABL
Mission
Spacecraft
Bus & Motor
ALTAIR, Unknown motor
Mass
33 kg wet, 33 kg dry
Launch date (UTC)
1964-11-21 (61 years ago)
Launch vehicle
Unknown
Launch site
Air Force Western Test Range (AFWTR)
Object type
Payload
Rocket body
Debris
Shape & HBR
Cyl, 1.5 m
Radar Cross Section
0.687 m², Medium (>0.1 m² and < 1m²)

Expand to show TLE details & history

TLE from 15 hours ago
0 SCOUT X-4 R/B
1   933U 64076C   25186.10563023  .00001130  00000-0  37007-3 0  9995
2   933  81.3360  63.9561 1053980  81.7658 290.1400 12.81653469791670
Epoch: 2025-07-05T02:32Z
TLE epoch observation values (Epoch: 2025-07-05T02:32:06.451Z)
Latitude
-0.00003°
Longitude
102.58077°
Altitude
1,136.916 km
Speed
7.379 km/s
True Right ascension
04h 15m 49s
True Declination
0° 00' 00"
Sunlit
Object was in daylight at epoch
Visualization orbit readout
Latitude
-2.40642°
Longitude
101.72391°
Altitude
1,150.389 km
Speed
7.366 km/s
Apparent Right ascension
02h 19m 13s
Apparent Declination
-53° 20' 22"
Sunlit
Object is in daylight
Visualization observer readout
Local Sidereal Time
05:26:02
Azimuth
206.333° SW
Elevation
-11.577°
Doppler factor
1
Orbital elements
Apogee altitude
2,144.776 km
Perigee altitude
519.482 km
Semi-major axis
7,710.266 km
Eccentricity
0.1054
Inclination
81.336°
RAAN
63.9561°
Arg. of periapsis
81.7658°
True anomaly
Unknown
Mean anomaly
290.14°
Eccentric anomaly
Unknown
Mean motion
3.20582 °/min
Orbital period
112.3 mins
BSTAR
0.00037007
Loading maneuver chart data...
Loading SW <> Apogee altitude chart data...
Loading historical data...
Loading historical data...
Loading historical data...
Loading historical data...
Loading historical data...
Loading historical data...
Loading historical data...

SCOUT X-4 R/B Visibility forecast

Observer location: undefined°, undefined°

Span
Click to sort rows by Start time (UTC) header in descending order
Start Az.
Max El. time (UTC)
Max El. Az.
Max El.
End time (UTC)
End Az.
6 mins2025-07-05 17:39:39.375Z234.24° WSW2025-07-05 17:42:39.375Z275.721° WNW21.782°2025-07-05 17:45:39.375Z330.499° NNW
10 mins2025-07-06 03:26:39.375Z2.218° NNE2025-07-06 03:29:39.375Z55.988° ENE41.827°2025-07-06 03:36:39.375Z162.889° S
7 mins2025-07-06 16:07:39.375Z160.847° S2025-07-06 16:11:39.375Z78.741° E33.208°2025-07-06 16:14:39.375Z27.241° NE
|